When you browse on this site, cookies collect data to enhance your experience and personalize the content and advertising you see.
Visit our Privacy Policy to learn more. By continuing to use the site, you agree to this use of cookies and data.
  • In Romania
  • List of Countries
  • For 7 days
  • Water Temperature
  • Weather Map
  • Weather Widgets
  • user-avatar
    Login

    Hourly Weather Shusha

    Today, 19 September, Thursday

    Time Temperature Precipitation Wind Pressure Humidity
    00:00 +18°C° 0 mm 1 mps 661 mmHg 60%
    01:00 +18°C° 0 mm 1 mps 661 mmHg 57%
    02:00 +16°C° 0 mm 2 mps 660 mmHg 55%
    03:00 +16°C° 0 mm 2 mps 660 mmHg 52%
    04:00 +16°C° 0 mm 2 mps 660 mmHg 52%
    05:00 +16°C° 0 mm 1 mps 660 mmHg 52%
    06:00 +16°C° 0 mm 1 mps 660 mmHg 52%
    07:00 +19°C° 0 mm 1 mps 661 mmHg 47%
    08:00 +22°C° 0 mm 1 mps 662 mmHg 41%
    09:00 +24°C° 0 mm 1 mps 662 mmHg 36%
    10:00 +25°C° 0 mm 2 mps 663 mmHg 34%
    11:00 +26°C° 0 mm 2 mps 663 mmHg 32%
    12:00 +27°C° 0 mm 3 mps 663 mmHg 29%
    13:00 +27°C° 0 mm 3 mps 663 mmHg 29%
    14:00 +27°C° 0 mm 3 mps 663 mmHg 29%
    15:00 +27°C° 0 mm 3 mps 662 mmHg 30%
    16:00 +26°C° 0 mm 3 mps 662 mmHg 33%
    17:00 +24°C° 0 mm 2 mps 662 mmHg 37%
    18:00 +22°C° 0 mm 1 mps 662 mmHg 40%
    19:00 +21°C° 0 mm 1 mps 662 mmHg 44%
    20:00 +20°C° 0 mm 1 mps 662 mmHg 48%
    21:00 +19°C° 0 mm 1 mps 662 mmHg 52%
    22:00 +19°C° 0 mm 1 mps 662 mmHg 55%
    23:00 +18°C° 0 mm 1 mps 662 mmHg 57%

    Tomorrow, 20 September, Friday

    Time Temperature Precipitation Wind Pressure Humidity
    00:00 +16°C° 0 mm 1 mps 662 mmHg 60%
    01:00 +16°C° 0 mm 1 mps 661 mmHg 64%
    02:00 +15°C° 0 mm 1 mps 661 mmHg 68%
    03:00 +15°C° 0 mm 1 mps 660 mmHg 71%
    04:00 +15°C° 0 mm 1 mps 660 mmHg 73%
    05:00 +14°C° 0 mm 1 mps 660 mmHg 75%
    06:00 +14°C° 0 mm 1 mps 660 mmHg 76%
    07:00 +16°C° 0 mm 1 mps 660 mmHg 73%
    08:00 +18°C° 0 mm 1 mps 661 mmHg 70%
    09:00 +18°C° 0 mm 2 mps 661 mmHg 67%
    10:00 +19°C° 0 mm 2 mps 661 mmHg 63%
    11:00 +20°C° 0 mm 2 mps 660 mmHg 60%
    12:00 +21°C° 0 mm 3 mps 660 mmHg 57%
    13:00 +23°C° 0 mm 2 mps 659 mmHg 56%
    14:00 +23°C° 0 mm 2 mps 659 mmHg 56%
    15:00 +23°C° 0 mm 2 mps 658 mmHg 56%
    16:00 +21°C° 0 mm 2 mps 658 mmHg 62%
    17:00 +20°C° 0 mm 1 mps 657 mmHg 69%
    18:00 +19°C° 0 mm 1 mps 656 mmHg 75%
    19:00 +19°C° 0 mm 1 mps 656 mmHg 74%
    20:00 +18°C° 0 mm 1 mps 656 mmHg 73%
    21:00 +17°C° 0 mm 2 mps 656 mmHg 72%
    22:00 +18°C° 0 mm 1 mps 656 mmHg 67%
    23:00 +18°C° 0 mm 1 mps 656 mmHg 61%

    Day after tomorrow, 21 September, Saturday

    Time Temperature Precipitation Wind Pressure Humidity
    00:00 +18°C° 0 mm 1 mps 656 mmHg 56%
    01:00 +18°C° 0 mm 1 mps 655 mmHg 56%
    02:00 +16°C° 0 mm 1 mps 655 mmHg 57%
    03:00 +16°C° 0 mm 1 mps 654 mmHg 57%
    04:00 +15°C° 0 mm 1 mps 654 mmHg 61%
    05:00 +15°C° 0 mm 1 mps 654 mmHg 64%
    06:00 +15°C° 0 mm 1 mps 654 mmHg 68%
    07:00 +18°C° 0 mm 1 mps 654 mmHg 63%
    08:00 +19°C° 0 mm 2 mps 655 mmHg 57%
    09:00 +21°C° 0 mm 2 mps 655 mmHg 52%
    10:00 +22°C° 0 mm 3 mps 655 mmHg 48%
    11:00 +24°C° 0 mm 3 mps 655 mmHg 45%
    12:00 +25°C° 0 mm 3 mps 655 mmHg 42%
    13:00 +25°C° 0 mm 4 mps 655 mmHg 43%
    14:00 +23°C° 0 mm 4 mps 655 mmHg 43%
    15:00 +23°C° 0 mm 5 mps 654 mmHg 43%
    16:00 +21°C° 0 mm 4 mps 655 mmHg 47%
    17:00 +19°C° 0 mm 4 mps 655 mmHg 51%
    18:00 +17°C° 0 mm 3 mps 655 mmHg 55%
    19:00 +16°C° 0 mm 3 mps 656 mmHg 58%
    20:00 +14°C° 0 mm 3 mps 657 mmHg 61%
    21:00 +13°C° 0 mm 4 mps 658 mmHg 63%
    22:00 +12°C° 0 mm 3 mps 658 mmHg 67%
    23:00 +12°C° 0 mm 3 mps 659 mmHg 70%

    22 September, Sunday

    Time Temperature Precipitation Wind Pressure Humidity
    00:00 +12°C° 0 mm 2 mps 659 mmHg 74%
    01:00 +12°C° 0 mm 2 mps 660 mmHg 73%
    02:00 +12°C° 0 mm 2 mps 660 mmHg 72%
    03:00 +12°C° 0 mm 1 mps 660 mmHg 72%
    04:00 +12°C° 0 mm 1 mps 661 mmHg 70%
    05:00 +12°C° 0 mm 1 mps 661 mmHg 69%
    06:00 +10°C° 0 mm 2 mps 662 mmHg 68%
    07:00 +12°C° 0 mm 2 mps 662 mmHg 64%
    08:00 +12°C° 0 mm 2 mps 662 mmHg 61%
    09:00 +12°C° 0 mm 2 mps 663 mmHg 58%
    10:00 +13°C° 0 mm 2 mps 663 mmHg 55%
    11:00 +14°C° 0 mm 2 mps 663 mmHg 52%
    12:00 +14°C° 0 mm 2 mps 663 mmHg 49%
    13:00 +15°C° 0 mm 2 mps 662 mmHg 48%
    14:00 +15°C° 0 mm 2 mps 662 mmHg 47%
    15:00 +15°C° 0 mm 2 mps 661 mmHg 45%
    16:00 +14°C° 0 mm 2 mps 661 mmHg 48%
    17:00 +13°C° 0 mm 1 mps 660 mmHg 51%
    18:00 +12°C° 0 mm 1 mps 660 mmHg 54%
    19:00 +12°C° 0 mm 1 mps 660 mmHg 56%
    20:00 +11°C° 0 mm 1 mps 660 mmHg 58%
    21:00 +10°C° 0 mm 1 mps 660 mmHg 61%
    22:00 +10°C° 0 mm 1 mps 660 mmHg 62%
    23:00 +10°C° 0 mm 1 mps 660 mmHg 63%

    23 September, Monday

    Time Temperature Precipitation Wind Pressure Humidity
    00:00 +10°C° 0 mm 1 mps 660 mmHg 65%
    01:00 +9°C° 0 mm 1 mps 660 mmHg 66%
    02:00 +9°C° 0 mm 1 mps 659 mmHg 67%
    03:00 +9°C° 0 mm 1 mps 659 mmHg 67%
    04:00 +9°C° 0 mm 1 mps 659 mmHg 67%
    05:00 +9°C° 0 mm 1 mps 660 mmHg 67%
    06:00 +9°C° 0 mm 1 mps 660 mmHg 67%
    07:00 +11°C° 0 mm 1 mps 660 mmHg 61%
    08:00 +13°C° 0 mm 1 mps 661 mmHg 54%
    09:00 +15°C° 0 mm 2 mps 662 mmHg 47%
    10:00 +16°C° 0 mm 2 mps 662 mmHg 45%
    11:00 +17°C° 0 mm 3 mps 662 mmHg 44%
    12:00 +18°C° 0 mm 3 mps 663 mmHg 42%
    13:00 +18°C° 0 mm 3 mps 662 mmHg 42%
    14:00 +18°C° 0 mm 3 mps 662 mmHg 43%
    15:00 +18°C° 0 mm 3 mps 662 mmHg 44%
    16:00 +16°C° 0 mm 3 mps 661 mmHg 55%
    17:00 +14°C° 0 mm 2 mps 661 mmHg 67%
    18:00 +13°C° 0 mm 2 mps 661 mmHg 79%
    19:00 +12°C° 0 mm 2 mps 661 mmHg 81%
    20:00 +12°C° 0 mm 1 mps 662 mmHg 84%
    21:00 +12°C° 0 mm 1 mps 662 mmHg 87%
    22:00 +12°C° 0.1 mm 1 mps 662 mmHg 87%
    23:00 +12°C° 0.1 mm 1 mps 662 mmHg 87%

    24 September, Tuesday

    Time Temperature Precipitation Wind Pressure Humidity
    00:00 +12°C° 0.1 mm 1 mps 663 mmHg 87%
    01:00 +12°C° 0.3 mm 1 mps 663 mmHg 88%
    02:00 +12°C° 0.3 mm 1 mps 663 mmHg 89%
    03:00 +12°C° 0.3 mm 1 mps 663 mmHg 90%
    04:00 +12°C° 0.1 mm 1 mps 663 mmHg 91%
    05:00 +11°C° 0.1 mm 1 mps 663 mmHg 92%
    06:00 +11°C° 0.1 mm 1 mps 662 mmHg 93%
    07:00 +12°C° 0.1 mm 1 mps 663 mmHg 91%
    08:00 +12°C° 0.1 mm 1 mps 663 mmHg 89%
    09:00 +13°C° 0.1 mm 1 mps 663 mmHg 87%
    10:00 +13°C° 0 mm 1 mps 663 mmHg 83%
    11:00 +14°C° 0 mm 2 mps 662 mmHg 80%
    12:00 +15°C° 0 mm 2 mps 662 mmHg 76%
    13:00 +15°C° 0 mm 2 mps 662 mmHg 75%
    14:00 +16°C° 0 mm 2 mps 661 mmHg 74%
    15:00 +16°C° 0 mm 2 mps 660 mmHg 74%
    16:00 +15°C° 0 mm 2 mps 660 mmHg 78%
    17:00 +14°C° 0 mm 1 mps 660 mmHg 83%
    18:00 +13°C° 0 mm 1 mps 659 mmHg 88%
    19:00 +13°C° 0 mm 1 mps 659 mmHg 88%
    20:00 +13°C° 0 mm 1 mps 659 mmHg 88%
    21:00 +12°C° 0 mm 1 mps 659 mmHg 88%
    22:00 +12°C° 0 mm 1 mps 659 mmHg 86%
    23:00 +12°C° 0 mm 1 mps 658 mmHg 84%
    Show more